全部
Ricketyback Fld Airport (Aneta, ND) ND02 天氣
There is no TAF data available at ND02 or any nearby airports.
There is no METAR data available at ND02. Showing METAR data for S32 (28 mi S).
S32近期METAR歷史資料(ND02無資料)
| Date | Time (CDT) | Flight Rules | Wind Dir. | Speed | Type | Height AGL (ft) | Visibility | Temp (°C) | Temp (°F) | Dew Point (°C) | Dew Point (°F) | Rel. Humid. | Pressure | Density Altitude | Remarks |
|---|---|---|---|---|---|---|---|---|---|---|---|---|---|---|---|
| 05-五月 | 06:35 | VFR | 320° | 10 kt | 10 miles | 2° | 35° | -3° | 26° | 69% | 29.82 in Hg | 202 ft | |||
| 05-五月 | 06:15 | VFR | 300° | 9 kt | 10 miles | 1° | 33° | -3° | 26° | 75% | 29.82 in Hg | 82 ft | |||
| 05-五月 | 05:55 | VFR | 300° | 9 kt | 10 miles | 1° | 33° | -3° | 26° | 75% | 29.81 in Hg | 92 ft | |||
| 05-五月 | 05:35 | VFR | 290° | 9 kt | 10 miles | 1° | 33° | -4° | 24° | 69% | 29.81 in Hg | 92 ft | |||
| 05-五月 | 05:15 | VFR | 290° | 9 kt | 10 miles | 1° | 33° | -4° | 24° | 69% | 29.81 in Hg | 92 ft | |||
| 05-五月 | 04:55 | VFR | 290° | 10 kt | 10 miles | 1° | 33° | -4° | 24° | 69% | 29.81 in Hg | 92 ft | |||
| 05-五月 | 04:35 | VFR | 290° | 10 kt | 10 miles | 1° | 33° | -3° | 26° | 75% | 29.81 in Hg | 92 ft | |||
| 05-五月 | 04:15 | VFR | 280° | 10 kt | 10 miles | 0° | 32° | -2° | 28° | 86% | 29.80 in Hg | -18 ft | |||
| 05-五月 | 03:55 | VFR | 270° | 8 kt | 10 miles | 0° | 32° | -2° | 28° | 86% | 29.80 in Hg | -18 ft | |||
| 05-五月 | 03:15 | VFR | 260° | 7 kt | 10 miles | 0° | 32° | -1° | 30° | 93% | 29.80 in Hg | -18 ft | |||
| 05-五月 | 02:55 | VFR | 260° | 7 kt | 10 miles | 0° | 32° | -1° | 30° | 93% | 29.80 in Hg | -18 ft | |||
| 05-五月 | 02:35 | VFR | 260° | 7 kt | 10 miles | -1° | 30° | -2° | 28° | 93% | 29.80 in Hg | -138 ft | |||
| 05-五月 | 02:15 | VFR | 250° | 6 kt | 10 miles | -2° | 28° | -2° | 28° | 100% | 29.80 in Hg | -258 ft | |||
| 05-五月 | 01:55 | VFR | 240° | 6 kt | 10 miles | -2° | 28° | -2° | 28° | 100% | 29.81 in Hg | -268 ft | |||
| 05-五月 | 01:35 | VFR | 240° | 5 kt | 10 miles | -2° | 28° | -2° | 28° | 100% | 29.80 in Hg | -258 ft | |||
| 05-五月 | 01:15 | VFR | 250° | 5 kt | 10 miles | -3° | 26° | -2° | 28° | 100% | 29.81 in Hg | -388 ft | |||
| 05-五月 | 00:55 | VFR | Calm | 10 miles | -4° | 24° | -4° | 24° | 100% | 29.81 in Hg | -508 ft | ||||
| 05-五月 | 00:35 | VFR | 300° | 3 kt | 10 miles | -4° | 24° | -5° | 23° | 93% | 29.80 in Hg | -498 ft | |||
| 05-五月 | 00:15 | VFR | 320° | 4 kt | 10 miles | -2° | 28° | -4° | 24° | 86% | 29.80 in Hg | -258 ft | |||
| 04-五月 | 23:55 | VFR | 330° | 3 kt | 10 miles | 0° | 32° | -1° | 30° | 93% | 29.79 in Hg | -8 ft | |||
| 04-五月 | 23:35 | VFR | 360° | 4 kt | 10 miles | 1° | 33° | 0° | 32° | 93% | 29.79 in Hg | 112 ft | |||
| 04-五月 | 23:15 | VFR | 350° | 4 kt | 10 miles | 1° | 33° | 0° | 32° | 93% | 29.79 in Hg | 112 ft | |||
| 04-五月 | 22:55 | VFR | 360° | 4 kt | 10 miles | 2° | 35° | -1° | 30° | 80% | 29.79 in Hg | 232 ft | |||
| 04-五月 | 22:35 | VFR | 10° | 5 kt | 10 miles | 2° | 35° | -1° | 30° | 80% | 29.79 in Hg | 232 ft |
登入
| 您的瀏覽器不支援. 升級您的瀏覽器 |
